Powrót do katalogu

STARLINK-32430

AktywnyŁącznośćVLEO
NORAD 62207·PAYLOAD·🇺🇸 United States

Wystrzelony Dec 4, 2024 z Cape Canaveral Space Force Station

Loading…

Następne Przeloty (najbliższe 24 godziny)

TLE

ŚwieżeSource: CelesTrak SupGP

Epoka: Sep 14, 2026, 21:32 UTC

1 62207C 24229R   26257.89770833  .00016104  00000+0  58338-3 0  2571
2 62207  42.9999 278.8833 0001522 263.9600 191.6082 15.27565351    14

Śledź STARLINK-32430 w czasie rzeczywistym z AllMySat

Download on the App Store